Volver al catálogo

USA 103

ActivoMilitarHEO
NORAD 23097·PAYLOAD·🇺🇸 United States

Lanzado May 3, 1994 desde Cape Canaveral Space Force Station

Loading…

Próximos Pases (próximas 24 horas)

TLE

ActualizadoSource: Mike McCants

Época: Sep 14, 2026, 22:47 UTC

1 23097U 94026A   26257.94958589  .00000052  00000-0  00000-0 0    01
2 23097  62.5982 133.6489 6786562 264.0324  21.2466  2.00604814  4572

Sigue USA 103 en tiempo real con AllMySat

Download on the App Store